Location: Cassano d�Adda
(45.5333°N, 9.5167°E)
Time: 18:07:13
(UTC+00:00)

Daily predictions for brighter satellites

Satellite Brightness Start Highest point End
(mag) Time Altitude Azimuth Time Altitude Azimuth Time Altitude Azimuth
Cosmos 1400 Rocket 4.1 16:06:30 10° SSW 16:10:24 42° WNW 16:14:17 10° N
ALOS 3.1 16:08:41 10° S 16:13:17 58° W 16:17:54 10° NNW
Okean O Rocket 2.0 16:10:32 10° S 16:14:51 71° WSW 16:19:13 10° NNW
Cosmos 2333 Rocket 2.3 16:11:38 10° SSW 16:17:19 67° ESE 16:23:03 10° NNE
Cosmos 1862 Rocket 4.4 16:14:51 10° SSE 16:18:36 29° E 16:22:23 10° NNE
Cosmos 304 Rocket 3.7 16:13:50 10° NNW 16:18:40 75° ENE 16:23:28 10° SSE
Cosmos 2237 Rocket 3.1 16:19:46 10° SSE 16:24:37 30° ESE 16:29:29 10° NE
Radarsat Rocket 4.3 16:18:25 10° SSE 16:24:41 75° WSW 16:30:33 10° NNW
Meteor 1-11 Rocket 4.1 16:20:37 10° N 16:26:26 50° ENE 16:32:10 10° SSE
Cosmos 2322 Rocket 4.1 16:24:28 10° W 16:28:53 23° NW 16:33:22 10° N
Okean-O 3.3 16:25:22 10° SE 16:29:20 33° ENE 16:33:19 10° N
NOAA 12 4.5 16:25:52 10° SE 16:30:49 42° ENE 16:35:47 10° N
Cosmos 2279 Rocket 4.1 16:24:57 10° N 16:31:14 90° E 16:37:31 10° S
Cosmos 1812 3.2 16:27:41 10° SSE 16:31:16 38° E 16:34:53 10° NNE
Meteor 1-27 Rocket 4.2 16:26:00 10° SSE 16:31:19 43° E 16:36:47 10° NNE
Cosmos 1707 Rocket 3.7 16:29:53 10° S 16:34:21 84° W 16:38:52 10° N
ATLAS 2AS CENTAUR R/B 3.7 16:26:51 10° WSW 16:34:39 54° NW 16:42:28 10° NE
RESURS DK-1 2.3 16:31:29 10° SSW 16:35:35 73° ESE 16:39:43 10° NNE
SL-16 R/B 4.3 16:31:52 10° W 16:35:51 19° NW 16:39:52 10° N
STARLINK-67 4.1 16:34:29 10° W 16:36:54 26° NNW 16:38:49 14° NE
Exosat Rocket 3.8 16:31:55 10° S 16:37:11 51° ESE 16:42:01 10° NNE
Cosmos 2219 Rocket 2.3 16:34:32 10° SSW 16:40:09 85° WNW 16:45:50 10° NNE
BREEZE-M DEB (TANK) 2.4 16:37:33 10° WNW 16:40:25 56° SSW 16:42:34 10° SE
CORIOLIS 4.2 16:35:13 10° SSE 16:40:36 66° ENE 16:46:01 10° N
AQUARIUS 4.1 16:37:16 10° SSE 16:41:45 71° ENE 16:46:15 10° N
NOSS 2 (A) 4.3 16:45:20 10° NW 16:47:46 66° SW 16:50:04 10° SSE
SeaSat 1 4.4 16:48:20 11° NE 16:48:23 11° NE 16:49:47 10° NNE
Feng Yun 1-1 Rocket 4.2 16:44:49 10° SSE 16:50:13 87° WSW 16:55:40 10° NNW
Shenzhou-11 Module 2.5 16:48:01 10° WSW 16:50:40 45° S 16:52:19 19° ESE
Nadezhda 4 Rocket 4.0 16:45:17 10° S 16:51:30 63° E 16:57:45 10° NNE
Cosmos 1500 3.0 16:47:54 10° N 16:51:41 75° E 16:55:25 10° SSE
Cosmos 1908 Rocket 4.1 16:49:24 10° N 16:53:30 36° ENE 16:57:32 10° SE
STARLINK-46 2.8 16:51:31 10° WSW 16:54:08 56° NNW 16:55:24 26° NE
Cosmos 1980 3.8 16:49:30 10° S 16:54:58 55° ESE 16:59:58 13° NE
COSMO-SKYMED 1 3.3 16:53:11 14° NE 16:56:20 31° E 17:00:12 10° SSE
Cosmos 1943 Rocket 3.9 16:54:53 10° N 16:57:44 14° NE 16:57:52 14° NE
Cosmos 2251 Rocket 3.5 16:52:36 10° S 16:57:53 72° ESE 17:03:09 10° NNE
YAOGAN 6 3.2 16:55:06 10° SE 16:58:16 33° ENE 17:01:32 10° N
Cosmos 2297 4.5 16:54:19 10° N 16:59:20 30° NE 17:03:20 14° ESE
Cosmos 1536 2.8 16:56:48 10° N 17:00:47 59° E 17:04:43 10° SSE
H-2A R/B 3.0 16:57:36 10° S 17:01:17 68° WSW 17:04:58 10° NNW
CSL-04 Rocket 4.2 16:59:51 10° SE 17:04:34 34° ENE 17:09:18 10° N
YAOGAN 1 3.3 17:01:07 10° SE 17:04:51 29° ENE 17:08:37 10° N
USA 215 3.9 16:59:38 14° NE 17:04:59 48° NNW 17:11:12 10° W
Cosmos 1441 Rocket 4.0 17:01:49 10° NNE 17:05:09 27° ENE 17:05:56 25° E
COSMOS 2428 3.4 17:04:27 10° SW 17:09:59 53° WNW 17:15:35 10° NNE
CZ-4 R/B 1.7 17:06:37 10° SE 17:10:16 38° ENE 17:13:53 10° N
Cosmos 2026 Rocket 4.2 17:08:29 10° SSE 17:14:06 42° E 17:19:45 10° NNE
Lacrosse 5 rocket 1.5 17:10:16 10° WSW 17:14:32 69° NW 17:16:37 28° NE
Aureole 1 Rocket 3.1 17:14:15 10° S 17:16:23 30° SE 17:16:23 30° SE
Envisat 2.9 17:12:05 10° SSE 17:17:10 87° ENE 17:22:16 10° NNW
Okean 1-7 3.5 17:14:05 10° SSE 17:18:03 37° E 17:19:10 32° ENE
CSL-04 Debris 4.4 17:12:56 10° SE 17:18:07 45° ENE 17:23:17 10° N
Cosmos 1733 Rocket 4.1 17:15:02 10° NNW 17:19:14 48° W 17:23:27 10° SSW
NOSS 7 (D) 4.0 17:19:24 10° NW 17:22:24 72° NE 17:23:12 46° ESE
SL-4 R/B 2.6 17:20:13 10° W 17:23:51 43° NNW 17:25:06 32° NNE
Cosmos 407 Rocket 4.1 17:22:44 10° SSE 17:27:18 33° E 17:27:38 32° E
Cosmos 1867 4.4 17:25:01 10° NNW 17:29:47 29° NE 17:30:02 29° NE
Genesis I 4.0 17:26:12 10° NNW 17:29:11 33° NNE 17:29:11 33° NNE
FengYun 1-2 T 4.1 17:24:23 10° SSE 17:29:52 82° ENE 17:35:24 10° NNW
ISS -3.2 17:26:35 10° WNW 17:29:54 57° SW 17:31:04 34° SSE
Cosmos 1992 Rocket 4.4 17:27:46 10° NNW 17:32:56 63° WSW 17:38:05 10° S
STARLINK-60 3.4 17:32:56 10° SW 17:36:01 52° SSE 17:36:01 52° SSE
Cosmos 1666 2.6 17:32:33 10° N 17:36:20 80° W 17:40:02 10° S
NOAA 11 4.3 17:33:19 10° SE 17:38:34 51° ENE 17:43:52 10° N
Cosmos 1900 4.4 17:33:50 10° NW 17:38:43 75° WSW 17:43:34 10° SSE
Cosmos 1627 Rocket 4.3 17:32:59 10° S 17:39:01 70° E 17:45:08 10° NNE
Cosmos 2278 Rocket 3.2 17:36:43 10° NW 17:42:08 48° WSW 17:47:31 10° S
NOSS 5 (C) 4.4 17:39:06 10° NW 17:42:21 74° NE 17:42:21 74° NE
CZ-4 R/B 4.5 17:38:42 10° S 17:42:51 82° WSW 17:47:03 10° NNW
SKYMED 2 3.6 17:41:52 22° N 17:44:36 81° WNW 17:48:57 10° SSW
Cosmos 1782 Rocket 3.3 17:43:35 10° N 17:47:57 75° E 17:52:17 10° SSE
Cosmos 2195 Rocket 4.4 17:44:18 10° S 17:50:31 89° W 17:56:51 10° N
Cosmos 921 Rocket 3.4 17:46:29 10° NNW 17:49:41 47° N 17:49:41 47° N
NOAA 15 4.5 17:45:45 10° SSE 17:51:01 89° ENE 17:56:19 10° NNW
SL-16 R/B 2.2 17:50:42 10° S 17:56:16 60° ESE 17:57:01 55° ENE
Cosmos 2369 Rocket 3.7 17:52:05 10° N 17:54:28 20° NNE 17:54:28 20° NNE
Cosmos 1092 Rocket 4.3 17:50:52 10° SSW 17:57:08 68° W 18:03:24 10° N
Cosmos 1703 Rocket 3.9 17:54:28 10° SSW 17:58:54 68° W 18:01:05 29° N
Cosmos 2333 Rocket 4.1 17:57:31 10° W 18:02:07 24° NW 18:06:45 10° N
Cosmos 2237 Rocket 3.1 18:02:59 10° SW 18:08:27 46° WNW 18:11:47 23° N
BREEZE-M R/B 4.1 18:06:42 10° WNW 18:09:34 31° NW 18:09:34 31° NW
DMSP B5D1-3 4.4 18:12:58 71° SSE 18:12:58 71° SSE 18:17:38 10° S
Cosmos 1190 Rocket 4.2 18:13:17 10° SSW 18:17:34 60° S 18:17:34 60° S
SeaSat 1 4.3 18:28:08 20° NNW 18:28:08 20° NNW 18:29:40 10° NNW
Cosmos 2219 Rocket 4.5 18:21:18 10° W 18:25:00 18° NW 18:28:41 10° N
S3M 4.1 18:22:05 10° N 18:27:13 61° N 18:27:13 61° N
YAOGAN 1 4.5 18:37:10 10° SSW 18:40:55 28° W 18:44:42 10° NW
Cosmos 1553 Rocket 4.3 18:36:16 10° NNW 18:42:33 64° W 18:48:51 10° S
Cosmos 1943 Rocket 3.7 18:37:06 10° NNW 18:39:24 25° NNW 18:39:24 25° NNW
Cosmos 2297 4.5 18:38:16 10° NW 18:43:45 49° WSW 18:45:25 38° SSW
CZ-4 R/B 4.1 18:42:46 10° SW 18:45:26 18° W 18:48:07 10° NW
USA 215 4.3 18:46:59 33° N 18:47:08 33° N 18:52:48 10° WNW
Lacrosse 5 rocket 4.1 18:51:06 10° WNW 18:52:16 15° NW 18:52:16 15° NW
SL-16 R/B 4.3 19:36:06 10° WSW 19:38:58 22° WNW 19:38:58 22° WNW
